| time (UTC) | temp F | wind direction | speed MPH | gust MPH | rain 1hr in | rain 24hr in | rain mn in | humidity % | barometer mb |
| 20260506033416 | 42 | 232 | 0.0 | 0.0 | 0.00 | 0.00 | 0.00 | 55 | 1026.6 |
| 20260506032642 | 42 | 242 | 0.0 | 0.0 | 0.00 | 0.00 | 0.00 | 55 | 1026.5 |
| 20260506032403 | 42 | 242 | 0.0 | 0.0 | 0.00 | 0.00 | 0.00 | 55 | 1026.4 |
| 20260506031602 | 42 | 242 | 0.0 | 0.0 | 0.00 | 0.00 | 0.00 | 54 | 1026.4 |
| 20260506031100 | 42 | 242 | 0.0 | 0.0 | 0.00 | 0.00 | 0.00 | 54 | 1026.4 |
| 20260506030802 | 43 | 242 | 0.0 | 0.0 | 0.00 | 0.00 | 0.00 | 53 | 1026.4 |
| 20260506030030 | 43 | 242 | 0.0 | 0.0 | 0.00 | 0.00 | 0.00 | 53 | 1026.4 |
| 20260506030014 | 43 | 226 | 0.0 | 0.0 | 0.00 | 0.00 | 0.00 | 52 | 1026.3 |
| 20260506025016 | 43 | 226 | 0.0 | 0.0 | 0.00 | 0.00 | 0.00 | 52 | 1026.2 |
| 20260506024718 | 43 | 226 | 0.0 | 0.0 | 0.00 | 0.00 | 0.00 | 51 | 1026.1 |
| 20260506023922 | 43 | 244 | 0.0 | 1.0 | 0.00 | 0.00 | 0.00 | 50 | 1026.0 |
| 20260506023357 | 44 | 243 | 0.0 | 1.0 | 0.00 | 0.00 | 0.00 | 50 | 1025.9 |
| 20260506023126 | 44 | 217 | 0.0 | 0.0 | 0.00 | 0.00 | 0.00 | 50 | 1025.8 |
| 20260506022339 | 44 | 217 | 0.0 | 0.0 | 0.00 | 0.00 | 0.00 | 49 | 1025.8 |
| 20260506021839 | 44 | 263 | 0.0 | 0.0 | 0.00 | 0.00 | 0.00 | 48 | 1025.7 |
| 20260506021317 | 44 | 271 | 0.0 | 0.0 | 0.00 | 0.00 | 0.00 | 48 | 1025.6 |
| 20260506020750 | 44 | 238 | 0.0 | 2.0 | 0.00 | 0.00 | 0.00 | 47 | 1025.6 |
| 20260506020455 | 45 | 242 | 0.0 | 2.0 | 0.00 | 0.00 | 0.00 | 47 | 1025.5 |
| 20260506015725 | 45 | 236 | 0.0 | 1.0 | 0.00 | 0.00 | 0.00 | 47 | 1025.4 |
| 20260506015223 | 45 | 236 | 0.0 | 4.0 | 0.00 | 0.00 | 0.00 | 47 | 1025.2 |
| 20260506014726 | 45 | 285 | 0.0 | 4.0 | 0.00 | 0.00 | 0.00 | 46 | 1025.2 |
| 20260506014200 | 45 | 234 | 0.0 | 0.0 | 0.00 | 0.00 | 0.00 | 47 | 1025.2 |
| 20260506013908 | 46 | 234 | 0.0 | 1.0 | 0.00 | 0.00 | 0.00 | 47 | 1025.1 |
| 20260506013132 | 46 | 234 | 0.0 | 1.0 | 0.00 | 0.00 | 0.00 | 46 | 1025.0 |
| 20260506012635 | 46 | 234 | 0.0 | 1.0 | 0.00 | 0.00 | 0.00 | 45 | 1025.0 |
| 20260506012135 | 46 | 269 | 0.0 | 0.0 | 0.00 | 0.00 | 0.00 | 46 | 1024.8 |
| 20260506012131 | 46 | 269 | 0.0 | 0.0 | 0.00 | 0.00 | 0.00 | 46 | 1025.0 |
| 20260506011105 | 47 | 269 | 0.0 | 1.0 | 0.00 | 0.00 | 0.00 | 45 | 1024.8 |
| 20260506010539 | 47 | 203 | 0.0 | 1.0 | 0.00 | 0.00 | 0.00 | 45 | 1024.6 |
| 20260506010240 | 47 | 257 | 0.0 | 0.0 | 0.00 | 0.00 | 0.00 | 45 | 1024.6 |
| 20260506005741 | 47 | 303 | 0.0 | 0.0 | 0.00 | 0.00 | 0.00 | 44 | 1024.6 |
| 20260506005220 | 47 | 256 | 0.0 | 0.0 | 0.00 | 0.00 | 0.00 | 45 | 1024.5 |
| 20260506004454 | 47 | 290 | 0.0 | 1.0 | 0.00 | 0.00 | 0.00 | 45 | 1024.5 |
| 20260506003925 | 47 | 311 | 0.0 | 1.0 | 0.00 | 0.00 | 0.00 | 45 | 1024.5 |
| 20260506003424 | 47 | 315 | 0.0 | 0.0 | 0.00 | 0.00 | 0.00 | 45 | 1024.5 |
| 20260506002858 | 48 | 315 | 0.0 | 1.0 | 0.00 | 0.00 | 0.00 | 44 | 1024.4 |
| 20260506002329 | 48 | 5 | 0.0 | 1.0 | 0.00 | 0.00 | 0.00 | 44 | 1024.3 |
| 20260506001827 | 48 | 281 | 0.0 | 1.0 | 0.00 | 0.00 | 0.00 | 43 | 1024.3 |
| 20260506001326 | 48 | 243 | 0.0 | 0.0 | 0.00 | 0.00 | 0.00 | 43 | 1024.2 |
| 20260506000825 | 48 | 276 | 0.0 | 0.0 | 0.00 | 0.00 | 0.00 | 43 | 1024.2 |
| 20260506000558 | 48 | 276 | 0.0 | 1.0 | 0.00 | 0.00 | 0.00 | 42 | 1024.2 |
| 20260505235759 | 48 | 243 | 0.0 | 1.0 | 0.00 | 0.00 | 0.00 | 42 | 1024.2 |
| 20260505235257 | 49 | 231 | 0.0 | 0.0 | 0.00 | 0.00 | 0.00 | 41 | 1024.1 |
| 20260505234730 | 49 | 232 | 0.0 | 0.0 | 0.00 | 0.00 | 0.00 | 41 | 1024.1 |
| 20260505234227 | 49 | 260 | 0.0 | 0.0 | 0.00 | 0.00 | 0.00 | 41 | 1024.0 |
| 20260505233723 | 49 | 297 | 0.0 | 0.0 | 0.00 | 0.00 | 0.00 | 41 | 1024.0 |
| 20260505233222 | 50 | 285 | 0.0 | 4.0 | 0.00 | 0.00 | 0.00 | 39 | 1023.9 |
| 20260505232709 | 50 | 282 | 0.0 | 4.0 | 0.00 | 0.00 | 0.00 | 39 | 1023.9 |
| 20260505232209 | 50 | 250 | 0.0 | 8.0 | 0.00 | 0.00 | 0.00 | 39 | 1023.9 |
| 20260505231702 | 50 | 264 | 0.0 | 8.0 | 0.00 | 0.00 | 0.00 | 39 | 1024.0 |
| 20260505231149 | 50 | 234 | 0.0 | 0.0 | 0.00 | 0.00 | 0.00 | 39 | 1024.0 |
| 20260505230648 | 51 | 235 | 0.0 | 1.0 | 0.00 | 0.00 | 0.00 | 39 | 1024.0 |
| 20260505230357 | 51 | 283 | 0.0 | 0.0 | 0.00 | 0.00 | 0.00 | 40 | 1024.0 |
| 20260505225549 | 50 | 188 | 0.0 | 4.0 | 0.00 | 0.00 | 0.00 | 41 | 1024.0 |
| 20260505225317 | 51 | 202 | 0.0 | 4.0 | 0.00 | 0.00 | 0.00 | 39 | 1024.0 |
| 20260505224805 | 51 | 264 | 0.0 | 1.0 | 0.00 | 0.00 | 0.00 | 39 | 1023.9 |
| 20260505224006 | 51 | 291 | 0.0 | 1.0 | 0.00 | 0.00 | 0.00 | 38 | 1023.9 |
| 20260505223503 | 51 | 215 | 0.0 | 1.0 | 0.00 | 0.00 | 0.00 | 39 | 1023.9 |
| 20260505223237 | 51 | 217 | 0.0 | 10.0 | 0.00 | 0.00 | 0.00 | 39 | 1023.9 |
| 20260505222438 | 51 | 286 | 0.0 | 10.0 | 0.00 | 0.00 | 0.00 | 38 | 1023.8 |
| 20260505222414 | 51 | 242 | 0.0 | 1.0 | 0.00 | 0.00 | 0.00 | 38 | 1023.8 |
| 20260505221412 | 51 | 258 | 0.0 | 1.0 | 0.00 | 0.00 | 0.00 | 38 | 1023.8 |
| 20260505220846 | 51 | 216 | 0.0 | 1.0 | 0.00 | 0.00 | 0.00 | 39 | 1023.8 |
| 20260505220333 | 51 | 239 | 0.0 | 7.0 | 0.00 | 0.00 | 0.00 | 39 | 1023.8 |
| 20260505215836 | 51 | 187 | 0.0 | 7.0 | 0.00 | 0.00 | 0.00 | 38 | 1023.8 |
| 20260505215310 | 52 | 221 | 0.0 | 4.0 | 0.00 | 0.00 | 0.00 | 38 | 1023.9 |
| 20260505214808 | 52 | 288 | 0.0 | 8.0 | 0.00 | 0.00 | 0.00 | 38 | 1023.8 |
| 20260505214310 | 52 | 273 | 0.0 | 4.0 | 0.00 | 0.00 | 0.00 | 37 | 1023.9 |
| 20260505213742 | 52 | 242 | 0.0 | 3.0 | 0.00 | 0.00 | 0.00 | 37 | 1024.0 |
| 20260505213444 | 51 | 243 | 0.0 | 6.0 | 0.00 | 0.00 | 0.00 | 38 | 1023.9 |
| 20260505213322 | 52 | 304 | 0.0 | 6.0 | 0.00 | 0.00 | 0.00 | 38 | 1024.0 |
| 20260505212715 | 51 | 256 | 0.0 | 7.0 | 0.00 | 0.00 | 0.00 | 38 | 1024.0 |
| 20260505211709 | 51 | 301 | 0.0 | 7.0 | 0.00 | 0.00 | 0.00 | 37 | 1024.0 |
| 20260505211213 | 51 | 234 | 0.0 | 4.0 | 0.00 | 0.00 | 0.00 | 38 | 1024.1 |
| 20260505210652 | 51 | 184 | 0.0 | 4.0 | 0.00 | 0.00 | 0.00 | 40 | 1024.1 |
| 20260505210156 | 51 | 285 | 0.0 | 1.0 | 0.00 | 0.00 | 0.00 | 39 | 1024.1 |
| 20260505205638 | 51 | 265 | 0.0 | 2.0 | 0.00 | 0.00 | 0.00 | 39 | 1024.1 |
| 20260505205410 | 51 | 246 | 0.0 | 2.0 | 0.00 | 0.00 | 0.00 | 38 | 1024.1 |
| 20260505204619 | 51 | 279 | 0.0 | 0.0 | 0.00 | 0.00 | 0.00 | 38 | 1024.0 |
| 20260505204118 | 51 | 253 | 0.0 | 0.0 | 0.00 | 0.00 | 0.00 | 38 | 1024.0 |
| 20260505203618 | 51 | 273 | 0.0 | 5.0 | 0.00 | 0.00 | 0.00 | 38 | 1024.1 |
| 20260505203349 | 51 | 229 | 0.0 | 5.0 | 0.00 | 0.00 | 0.00 | 37 | 1024.1 |
| 20260505202613 | 51 | 207 | 0.0 | 1.0 | 0.00 | 0.00 | 0.00 | 38 | 1024.1 |
| 20260505202347 | 50 | 229 | 0.0 | 7.0 | 0.00 | 0.00 | 0.00 | 39 | 1024.2 |
| 20260505201552 | 50 | 235 | 0.0 | 7.0 | 0.00 | 0.00 | 0.00 | 39 | 1024.2 |
| 20260505201050 | 51 | 248 | 0.0 | 1.0 | 0.00 | 0.00 | 0.00 | 39 | 1024.3 |
| 20260505200819 | 51 | 247 | 0.0 | 2.0 | 0.00 | 0.00 | 0.00 | 38 | 1024.2 |
| 20260505200030 | 51 | 243 | 0.0 | 2.0 | 0.00 | 0.00 | 0.00 | 40 | 1024.2 |
| 20260505195531 | 51 | 243 | 0.0 | 7.0 | 0.00 | 0.00 | 0.00 | 40 | 1024.3 |
| 20260505195031 | 51 | 267 | 0.0 | 7.0 | 0.00 | 0.00 | 0.00 | 40 | 1024.3 |
| 20260505194513 | 51 | 236 | 0.0 | 1.0 | 0.00 | 0.00 | 0.00 | 40 | 1024.3 |
| 20260505194009 | 51 | 181 | 0.0 | 1.0 | 0.00 | 0.00 | 0.00 | 40 | 1024.3 |
| 20260505193742 | 51 | 258 | 0.0 | 1.0 | 0.00 | 0.00 | 0.00 | 40 | 1024.2 |
| 20260505192950 | 50 | 236 | 0.0 | 3.0 | 0.00 | 0.00 | 0.00 | 41 | 1024.3 |
| 20260505192426 | 50 | 234 | 0.0 | 3.0 | 0.00 | 0.00 | 0.00 | 41 | 1024.3 |
| 20260505191855 | 51 | 257 | 0.0 | 3.0 | 0.00 | 0.00 | 0.00 | 39 | 1024.3 |
| 20260505191356 | 51 | 248 | 0.0 | 3.0 | 0.00 | 0.00 | 0.00 | 40 | 1024.3 |
| 20260505190830 | 51 | 261 | 0.0 | 10.0 | 0.00 | 0.00 | 0.00 | 40 | 1024.3 |
| 20260505190309 | 51 | 241 | 0.0 | 10.0 | 0.00 | 0.00 | 0.00 | 40 | 1024.3 |
| 20260505185805 | 50 | 229 | 1.0 | 4.0 | 0.00 | 0.00 | 0.00 | 42 | 1024.3 |
| 20260505185238 | 49 | 269 | 1.0 | 13.0 | 0.00 | 0.00 | 0.00 | 42 | 1024.4 |
| 20260505184948 | 49 | 236 | 1.0 | 13.0 | 0.00 | 0.00 | 0.00 | 40 | 1024.4 |
| 20260505184215 | 50 | 270 | 0.0 | 8.0 | 0.00 | 0.00 | 0.00 | 39 | 1024.5 |
| 20260505183712 | 50 | 234 | 0.0 | 6.0 | 0.00 | 0.00 | 0.00 | 40 | 1024.4 |
| 20260505183146 | 50 | 255 | 0.0 | 6.0 | 0.00 | 0.00 | 0.00 | 39 | 1024.3 |
| 20260505182855 | 51 | 249 | 0.0 | 8.0 | 0.00 | 0.00 | 0.00 | 38 | 1024.3 |
| 20260505182121 | 51 | 165 | 1.0 | 8.0 | 0.00 | 0.00 | 0.00 | 39 | 1024.3 |
| 20260505181616 | 50 | 211 | 1.0 | 12.0 | 0.00 | 0.00 | 0.00 | 38 | 1024.3 |
| 20260505180506 | 50 | 209 | 1.0 | 11.0 | 0.00 | 0.00 | 0.00 | 38 | 1024.3 |
| 20260505175957 | 50 | 235 | 1.0 | 11.0 | 0.00 | 0.00 | 0.00 | 38 | 1024.2 |
| 20260505175425 | 50 | 254 | 0.0 | 11.0 | 0.00 | 0.00 | 0.00 | 37 | 1024.3 |
| 20260505175359 | 51 | 245 | 0.0 | 10.0 | 0.00 | 0.00 | 0.00 | 37 | 1024.4 |
| 20260505174604 | 51 | 242 | 0.0 | 4.0 | 0.00 | 0.00 | 0.00 | 36 | 1024.3 |
| 20260505173815 | 51 | 277 | 0.0 | 0.0 | 0.00 | 0.00 | 0.00 | 38 | 1024.3 |
| 20260505173312 | 50 | 276 | 0.0 | 2.0 | 0.00 | 0.00 | 0.00 | 39 | 1024.4 |
| 20260505172814 | 49 | 252 | 0.0 | 2.0 | 0.00 | 0.00 | 0.00 | 38 | 1024.4 |
| 20260505172246 | 49 | 248 | 0.0 | 7.0 | 0.00 | 0.00 | 0.00 | 38 | 1024.4 |
| 20260505171743 | 50 | 241 | 0.0 | 7.0 | 0.00 | 0.00 | 0.00 | 36 | 1024.4 |
| 20260505171217 | 51 | 215 | 0.0 | 9.0 | 0.00 | 0.00 | 0.00 | 36 | 1024.3 |
| 20260505170653 | 51 | 257 | 0.0 | 5.0 | 0.00 | 0.00 | 0.00 | 35 | 1024.4 |
| 20260505170356 | 51 | 257 | 0.0 | 1.0 | 0.00 | 0.00 | 0.00 | 36 | 1024.4 |
| 20260505165844 | 51 | 238 | 0.0 | 3.0 | 0.00 | 0.00 | 0.00 | 37 | 1024.5 |
| 20260505165113 | 51 | 293 | 0.0 | 3.0 | 0.00 | 0.00 | 0.00 | 37 | 1024.4 |
| 20260505164541 | 51 | 335 | 0.0 | 0.0 | 0.00 | 0.00 | 0.00 | 37 | 1024.5 |
| 20260505164018 | 51 | 234 | 0.0 | 2.0 | 0.00 | 0.00 | 0.00 | 37 | 1024.4 |
| 20260505163743 | 51 | 252 | 0.0 | 2.0 | 0.00 | 0.00 | 0.00 | 38 | 1024.4 |
| 20260505163009 | 51 | 237 | 0.0 | 1.0 | 0.00 | 0.00 | 0.00 | 37 | 1024.5 |
| 20260505162730 | 50 | 261 | 0.0 | 0.0 | 0.00 | 0.00 | 0.00 | 37 | 1024.5 |
| 20260505161956 | 51 | 316 | 0.0 | 0.0 | 0.00 | 0.00 | 0.00 | 36 | 1024.6 |
| 20260505161428 | 51 | 244 | 0.0 | 2.0 | 0.00 | 0.00 | 0.00 | 36 | 1024.6 |
| 20260505161157 | 51 | 245 | 0.0 | 2.0 | 0.00 | 0.00 | 0.00 | 36 | 1024.5 |
| 20260505160359 | 52 | 209 | 0.0 | 4.0 | 0.00 | 0.00 | 0.00 | 36 | 1024.5 |
| 20260505153242 | 50 | 227 | 0.0 | 3.0 | 0.00 | 0.00 | 0.00 | 39 | 1024.3 |
| 20260505152717 | 49 | 229 | 0.0 | 3.0 | 0.00 | 0.00 | 0.00 | 39 | 1024.4 |
| 20260505152210 | 50 | 231 | 0.0 | 3.0 | 0.00 | 0.00 | 0.00 | 39 | 1024.4 |
| 20260505151708 | 49 | 239 | 0.0 | 0.0 | 0.00 | 0.00 | 0.00 | 42 | 1024.4 |
| 20260505151207 | 49 | 238 | 0.0 | 0.0 | 0.00 | 0.00 | 0.00 | 41 | 1024.4 |
| 20260505150638 | 48 | 237 | 0.0 | 0.0 | 0.00 | 0.00 | 0.00 | 41 | 1024.4 |
| 20260505150137 | 48 | 261 | 0.0 | 0.0 | 0.00 | 0.00 | 0.00 | 42 | 1024.5 |
| 20260505140149 | 43 | 240 | 0.0 | 0.0 | 0.00 | 0.00 | 0.00 | 49 | 1023.9 |
| 20260505130221 | 40 | 236 | 0.0 | 0.0 | 0.00 | 0.00 | 0.00 | 55 | 1023.5 |
| 20260505124628 | 40 | 327 | 0.0 | 0.0 | 0.00 | 0.00 | 0.00 | 57 | 1023.4 |
| 20260505124104 | 39 | 327 | 0.0 | 0.0 | 0.00 | 0.00 | 0.00 | 58 | 1023.4 |
| 20260505123535 | 39 | 355 | 0.0 | 0.0 | 0.00 | 0.00 | 0.00 | 60 | 1023.2 |
| 20260505123306 | 39 | 5 | 0.0 | 1.0 | 0.00 | 0.00 | 0.00 | 60 | 1023.1 |
| 20260505122504 | 38 | 53 | 0.0 | 1.0 | 0.00 | 0.00 | 0.00 | 62 | 1023.0 |
| 20260505122231 | 38 | 235 | 0.0 | 0.0 | 0.00 | 0.00 | 0.00 | 64 | 1022.9 |
| 20260505121446 | 38 | 237 | 0.0 | 0.0 | 0.00 | 0.00 | 0.00 | 65 | 1022.8 |
| 20260505120937 | 38 | 237 | 0.0 | 0.0 | 0.00 | 0.00 | 0.00 | 65 | 1022.7 |
| 20260505120411 | 38 | 237 | 0.0 | 0.0 | 0.00 | 0.00 | 0.00 | 67 | 1022.7 |
| 20260505115845 | 38 | 237 | 0.0 | 0.0 | 0.00 | 0.00 | 0.00 | 68 | 1022.6 |
| 20260505115611 | 37 | 237 | 0.0 | 0.0 | 0.00 | 0.00 | 0.00 | 70 | 1022.5 |
| 20260505115446 | 38 | 237 | 0.0 | 0.0 | 0.00 | 0.00 | 0.00 | 69 | 1022.6 |
| 20260505114329 | 37 | 277 | 0.0 | 0.0 | 0.00 | 0.00 | 0.00 | 70 | 1022.5 |
| 20260505113824 | 37 | 9 | 0.0 | 0.0 | 0.00 | 0.00 | 0.00 | 71 | 1022.4 |
| 20260505113322 | 37 | 0 | 0.0 | 0.0 | 0.00 | 0.00 | 0.00 | 71 | 1022.1 |
| 20260505113024 | 37 | 355 | 0.0 | 0.0 | 0.00 | 0.00 | 0.00 | 71 | 1022.0 |
| 20260505112252 | 37 | 355 | 0.0 | 0.0 | 0.00 | 0.00 | 0.00 | 72 | 1021.9 |
| 20260505111746 | 37 | 355 | 0.0 | 0.0 | 0.00 | 0.00 | 0.00 | 72 | 1021.8 |
| 20260505111251 | 37 | 355 | 0.0 | 0.0 | 0.00 | 0.00 | 0.00 | 72 | 1021.7 |
| 20260505110723 | 37 | 210 | 0.0 | 0.0 | 0.00 | 0.00 | 0.00 | 73 | 1021.7 |
| 20260505110222 | 37 | 238 | 0.0 | 0.0 | 0.00 | 0.00 | 0.00 | 72 | 1021.8 |
| 20260505102033 | 38 | 230 | 0.0 | 0.0 | 0.00 | 0.00 | 0.00 | 68 | 1021.5 |
| 20260505101512 | 38 | 230 | 0.0 | 0.0 | 0.00 | 0.00 | 0.00 | 68 | 1021.5 |
| 20260505101015 | 38 | 230 | 0.0 | 0.0 | 0.00 | 0.00 | 0.00 | 68 | 1021.5 |
| 20260505100449 | 38 | 230 | 0.0 | 0.0 | 0.00 | 0.00 | 0.00 | 67 | 1021.5 |
| 20260505095921 | 38 | 230 | 0.0 | 0.0 | 0.00 | 0.00 | 0.00 | 67 | 1021.5 |
| 20260505095422 | 39 | 230 | 0.0 | 0.0 | 0.00 | 0.00 | 0.00 | 66 | 1021.5 |
| 20260505094904 | 39 | 230 | 0.0 | 0.0 | 0.00 | 0.00 | 0.00 | 66 | 1021.5 |
| 20260505094634 | 39 | 230 | 0.0 | 0.0 | 0.00 | 0.00 | 0.00 | 65 | 1021.4 |
| 20260505094131 | 39 | 230 | 0.0 | 0.0 | 0.00 | 0.00 | 0.00 | 65 | 1021.3 |
| 20260505093401 | 39 | 230 | 0.0 | 0.0 | 0.00 | 0.00 | 0.00 | 65 | 1021.3 |
| 20260505092843 | 39 | 230 | 0.0 | 0.0 | 0.00 | 0.00 | 0.00 | 65 | 1021.2 |
| 20260505092341 | 39 | 229 | 0.0 | 0.0 | 0.00 | 0.00 | 0.00 | 64 | 1021.2 |
| 20260505091822 | 39 | 229 | 0.0 | 0.0 | 0.00 | 0.00 | 0.00 | 64 | 1021.2 |
| 20260505091538 | 40 | 241 | 0.0 | 0.0 | 0.00 | 0.00 | 0.00 | 63 | 1021.1 |
| 20260505090734 | 40 | 241 | 0.0 | 0.0 | 0.00 | 0.00 | 0.00 | 63 | 1021.1 |
| 20260505090212 | 40 | 241 | 0.0 | 0.0 | 0.00 | 0.00 | 0.00 | 63 | 1021.1 |
| 20260505085710 | 40 | 241 | 0.0 | 0.0 | 0.00 | 0.00 | 0.00 | 62 | 1021.0 |
| 20260505085429 | 40 | 242 | 0.0 | 0.0 | 0.00 | 0.00 | 0.00 | 62 | 1020.8 |
| 20260505084653 | 40 | 229 | 0.0 | 0.0 | 0.00 | 0.00 | 0.00 | 62 | 1020.8 |
| 20260505084155 | 40 | 200 | 0.0 | 0.0 | 0.00 | 0.00 | 0.00 | 62 | 1020.8 |
| 20260505083648 | 40 | 227 | 0.0 | 0.0 | 0.00 | 0.00 | 0.00 | 62 | 1020.7 |
| 20260505083151 | 40 | 227 | 0.0 | 0.0 | 0.00 | 0.00 | 0.00 | 62 | 1020.6 |
| 20260505083138 | 40 | 227 | 0.0 | 0.0 | 0.00 | 0.00 | 0.00 | 62 | 1020.5 |
| 20260505082134 | 40 | 227 | 0.0 | 0.0 | 0.00 | 0.00 | 0.00 | 62 | 1020.5 |
| 20260505081908 | 40 | 227 | 0.0 | 0.0 | 0.00 | 0.00 | 0.00 | 63 | 1020.5 |
| 20260505081347 | 40 | 246 | 0.0 | 0.0 | 0.00 | 0.00 | 0.00 | 63 | 1020.5 |
| 20260505080615 | 40 | 246 | 0.0 | 0.0 | 0.00 | 0.00 | 0.00 | 63 | 1020.5 |
| 20260505080055 | 40 | 246 | 0.0 | 0.0 | 0.00 | 0.00 | 0.00 | 63 | 1020.5 |
| 20260505075823 | 40 | 246 | 0.0 | 0.0 | 0.00 | 0.00 | 0.00 | 63 | 1020.5 |
| 20260505075031 | 40 | 246 | 0.0 | 0.0 | 0.00 | 0.00 | 0.00 | 63 | 1020.3 |
| 20260505074528 | 40 | 246 | 0.0 | 0.0 | 0.00 | 0.00 | 0.00 | 63 | 1020.3 |
| 20260505074023 | 40 | 246 | 0.0 | 0.0 | 0.00 | 0.00 | 0.00 | 63 | 1020.3 |
| 20260505073520 | 40 | 246 | 0.0 | 0.0 | 0.00 | 0.00 | 0.00 | 63 | 1020.3 |
| 20260505072956 | 40 | 246 | 0.0 | 0.0 | 0.00 | 0.00 | 0.00 | 63 | 1020.3 |
| 20260505072703 | 40 | 246 | 0.0 | 0.0 | 0.00 | 0.00 | 0.00 | 63 | 1020.3 |
| 20260505071907 | 41 | 246 | 0.0 | 0.0 | 0.00 | 0.00 | 0.00 | 62 | 1020.3 |
| 20260505071345 | 41 | 246 | 0.0 | 0.0 | 0.00 | 0.00 | 0.00 | 62 | 1020.4 |
| 20260505070819 | 41 | 246 | 0.0 | 0.0 | 0.00 | 0.00 | 0.00 | 62 | 1020.4 |
| 20260505070308 | 41 | 246 | 0.0 | 0.0 | 0.00 | 0.00 | 0.00 | 62 | 1020.4 |
| 20260505070246 | 41 | 246 | 0.0 | 0.0 | 0.00 | 0.00 | 0.00 | 62 | 1020.5 |
| 20260505065219 | 41 | 246 | 0.0 | 0.0 | 0.00 | 0.00 | 0.00 | 62 | 1020.5 |
| 20260505064714 | 41 | 246 | 0.0 | 0.0 | 0.00 | 0.00 | 0.00 | 62 | 1020.5 |
| 20260505064212 | 41 | 246 | 0.0 | 0.0 | 0.00 | 0.00 | 0.00 | 61 | 1020.5 |
| 20260505063656 | 42 | 246 | 0.0 | 0.0 | 0.00 | 0.00 | 0.00 | 61 | 1020.4 |
| 20260505063157 | 42 | 246 | 0.0 | 0.0 | 0.00 | 0.00 | 0.00 | 61 | 1020.3 |
| 20260505062633 | 42 | 246 | 0.0 | 0.0 | 0.00 | 0.00 | 0.00 | 60 | 1020.4 |
| 20260505062107 | 42 | 246 | 0.0 | 0.0 | 0.00 | 0.00 | 0.00 | 60 | 1020.4 |
| 20260505061810 | 42 | 246 | 0.0 | 0.0 | 0.00 | 0.00 | 0.00 | 60 | 1020.4 |
| 20260505061039 | 42 | 216 | 0.0 | 0.0 | 0.00 | 0.00 | 0.00 | 59 | 1020.4 |
| 20260505060531 | 42 | 216 | 0.0 | 0.0 | 0.00 | 0.00 | 0.00 | 59 | 1020.5 |
| 20260505060034 | 42 | 215 | 0.0 | 0.0 | 0.00 | 0.00 | 0.00 | 59 | 1020.5 |
| 20260505055507 | 42 | 216 | 0.0 | 0.0 | 0.00 | 0.00 | 0.00 | 59 | 1020.5 |
| 20260505054939 | 42 | 216 | 0.0 | 0.0 | 0.00 | 0.00 | 0.00 | 58 | 1020.3 |
| 20260505054437 | 43 | 215 | 0.0 | 0.0 | 0.00 | 0.00 | 0.00 | 58 | 1020.3 |
| 20260505053910 | 43 | 216 | 0.0 | 0.0 | 0.00 | 0.00 | 0.00 | 58 | 1020.3 |
| 20260505053406 | 43 | 216 | 0.0 | 0.0 | 0.00 | 0.00 | 0.00 | 58 | 1020.4 |
| 20260505052847 | 43 | 216 | 0.0 | 0.0 | 0.00 | 0.00 | 0.00 | 58 | 1020.3 |
| 20260505052346 | 43 | 186 | 0.0 | 0.0 | 0.00 | 0.00 | 0.00 | 58 | 1020.2 |
| 20260505051818 | 43 | 261 | 0.0 | 0.0 | 0.00 | 0.00 | 0.00 | 58 | 1020.2 |
| 20260505051549 | 43 | 261 | 0.0 | 0.0 | 0.00 | 0.00 | 0.00 | 57 | 1020.1 |
| 20260505050750 | 43 | 261 | 0.0 | 0.0 | 0.00 | 0.00 | 0.00 | 57 | 1020.1 |
| 20260505050237 | 43 | 261 | 0.0 | 0.0 | 0.00 | 0.00 | 0.00 | 57 | 1020.1 |
| 20260505041612 | 44 | 221 | 0.0 | 0.0 | 0.00 | 0.00 | 0.00 | 53 | 1019.8 |
| 20260505041341 | 44 | 272 | 0.0 | 0.0 | 0.00 | 0.00 | 0.00 | 53 | 1020.0 |
| 20260505040547 | 44 | 272 | 0.0 | 0.0 | 0.00 | 0.00 | 0.00 | 53 | 1020.0 |
| 20260505040040 | 44 | 272 | 0.0 | 0.0 | 0.00 | 0.00 | 0.00 | 53 | 1020.0 |
| 20260505035538 | 44 | 267 | 0.0 | 0.0 | 0.00 | 0.00 | 0.00 | 52 | 1020.0 |
| 20260505035002 | 45 | 267 | 0.0 | 0.0 | 0.00 | 0.00 | 0.00 | 52 | 1019.8 |
| 20260505034728 | 45 | 266 | 0.0 | 0.0 | 0.00 | 0.00 | 0.00 | 52 | 1019.8 |
| 20260505033955 | 45 | 267 | 0.0 | 0.0 | 0.00 | 0.00 | 0.00 | 52 | 1019.7 |